Вернуться в каталог

STARLINK-35258

АктивенСвязьVLEO
NORAD 65861·PAYLOAD·🇺🇸 United States

Запущен Oct 3, 2025 с Vandenberg Space Force Base

Loading…

Ближайшие Пролёты (ближайшие 24 часа)

TLE

СвежийSource: CelesTrak SupGP

Эпоха: Sep 14, 2026, 15:01 UTC

1 65861C 25223H   26257.62618056  .00044841  00000+0  13249-2 0  2574
2 65861  53.1558 132.9141 0001350 103.3161 285.4434 15.34366017    17

Отслеживайте STARLINK-35258 в реальном времени с AllMySat

Download on the App Store